Fremont, MI

1:37 AM EST on February 23, 2018 (GMT -0500)
Fremont

Weather History for KFFX - January, 2013

Change the Weather History Date:

Saturday, January 5, 2013

  Actual Average (KMKG) Record (KMKG)
Temperature  
Mean Temperature 26 °F -  
Max Temperature 35 °F 29 °F 54 °F (1998)
Min Temperature 16 °F 17 °F -12 °F (1912)
Degree Days  
Heating Degree Days 40    
Moisture  
Dew Point 27 °F    
Average Humidity 94    
Maximum Humidity 100    
Minimum Humidity 84    
Precipitation  
Precipitation 0.00 in - - ()
Sea Level Pressure  
Sea Level Pressure 30.07 in    
Wind  
Wind Speed 6 mph (South)    
Max Wind Speed 16 mph    
Max Gust Speed 24 mph    
Visibility 6 miles    
Events Rain , Snow    
Averages and records for this station are not official NWS values.
T = Trace of Precipitation, MM = Missing Value Source: NWS Daily Summary

Daily Weather History Graph

Daily Weather History Graph

Search for Another Location

Airport or City:

Trip Planner

Search our weather history database for the weather conditions in past years. The results will help you decide how hot, cold, wet, or windy it might be!

Date:

Astronomy

Jan. 05, 2013 Rise Set
Actual Time 8:16 AM EST 5:22 PM EST
Civil Twilight 7:44 AM EST 5:54 PM EST
Nautical Twilight 7:08 AM EST 6:30 PM EST
Astronomical Twilight 6:33 AM EST 7:05 PM EST
Moon 1:16 AM EST (1/5) 12:17 PM EST (1/5)
Length of Visible Light 10h 10m
Length of Day
9h 05m
Last Quarter, 44% of the Moon is Illuminated
Jan 5
Last Quarter
Jan 11
New
Jan 18
First Quarter
Jan 26
Full
Feb 3
Last Quarter

Hourly Weather History & Observations

Time (EST) Temp. Windchill Dew Point Humidity Pressure Visibility Wind Dir Wind Speed Gust Speed Precip Events Conditions
12:15 AM 24.4 °F 20.1 °F 23.9 °F 98% 30.13 in 7.0 mi South 3.5 mph - N/A   Clear
12:35 AM 23.4 °F 16.2 °F 22.8 °F 98% 30.14 in 5.0 mi South 5.8 mph - N/A   Clear
12:54 AM 24.6 °F 18.8 °F 24.3 °F 99% 30.14 in 7.0 mi South 4.6 mph - N/A   Clear
1:15 AM 22.6 °F 16.5 °F 22.3 °F 99% 30.15 in 5.0 mi South 4.6 mph - N/A   Clear
1:35 AM 22.8 °F - 22.5 °F 99% 30.15 in 7.0 mi Calm Calm - N/A   Clear
1:55 AM 20.1 °F 13.6 °F 19.8 °F 99% 30.15 in 4.0 mi South 4.6 mph - N/A   Clear
2:14 AM 19.9 °F 12.1 °F 19.8 °F 99% 30.17 in 2.5 mi South 5.8 mph - N/A   Clear
2:35 AM 20.3 °F 15.4 °F 19.9 °F 99% 30.18 in 4.0 mi South 3.5 mph - N/A   Clear
2:55 AM 21.6 °F 16.8 °F 21.4 °F 99% 30.18 in 3.0 mi South 3.5 mph - N/A   Clear
3:15 AM 17.8 °F - 17.1 °F 97% 30.19 in 2.0 mi Calm Calm - N/A   Clear
3:35 AM 20.8 °F - 20.5 °F 99% 30.18 in 3.0 mi Calm Calm - N/A   Scattered Clouds
3:55 AM 20.5 °F - 20.1 °F 99% 30.18 in 2.5 mi Calm Calm - N/A   Clear
4:14 AM 18.9 °F - 18.1 °F 97% 30.18 in 2.5 mi Calm Calm - N/A   Clear
4:35 AM 19.4 °F - 18.9 °F 98% 30.18 in 1.2 mi Calm Calm - N/A   Mist
4:55 AM 20.8 °F 16.0 °F 20.3 °F 98% 30.17 in 3.0 mi East 3.5 mph - N/A   Clear
5:15 AM 19.4 °F - 18.7 °F 97% 30.17 in 3.0 mi Calm Calm - N/A   Clear
5:35 AM 18.0 °F - 17.1 °F 96% 30.16 in 1.8 mi Calm Calm - N/A   Mist
5:54 AM 20.7 °F - 20.1 °F 98% 30.16 in 2.5 mi Calm Calm - N/A   Clear
6:15 AM 19.8 °F 13.2 °F 19.2 °F 98% 30.15 in 3.0 mi NE 4.6 mph - N/A   Clear
6:35 AM 17.2 °F 11.9 °F 16.0 °F 95% 30.18 in 4.0 mi South 3.5 mph - N/A   Clear
6:55 AM 16.3 °F - 15.4 °F 96% 30.17 in 4.0 mi Calm Calm - N/A   Clear
7:15 AM 16.7 °F - 15.6 °F 96% 30.17 in 4.0 mi Calm Calm - N/A   Clear
7:35 AM 19.0 °F 12.3 °F 18.5 °F 98% 30.16 in 3.0 mi NE 4.6 mph - N/A   Clear
7:54 AM 16.7 °F 11.2 °F 15.6 °F 96% 30.15 in 5.0 mi ENE 3.5 mph - N/A   Clear
8:34 AM 20.1 °F - 19.4 °F 97% 30.17 in 3.0 mi Calm Calm - N/A   Scattered Clouds
8:55 AM 22.1 °F 17.4 °F 21.9 °F 99% 30.18 in 4.0 mi ESE 3.5 mph - N/A   Overcast
9:15 AM 23.0 °F - 22.8 °F 99% 30.17 in 4.0 mi Calm Calm - N/A   Overcast
9:35 AM 24.6 °F 17.7 °F 24.3 °F 99% 30.16 in 4.0 mi ESE 5.8 mph - N/A   Overcast
9:55 AM 25.2 °F 17.3 °F 24.8 °F 99% 30.15 in 4.0 mi East 6.9 mph - N/A   Mostly Cloudy
10:15 AM 25.9 °F 20.3 °F 25.7 °F 99% 30.15 in 4.0 mi ESE 4.6 mph - N/A   Scattered Clouds
10:55 AM 28.8 °F 23.7 °F 28.6 °F 99% 30.16 in 5.0 mi SE 4.6 mph - N/A   Scattered Clouds
11:14 AM 30.0 °F 25.2 °F 30.0 °F 100% 30.15 in 5.0 mi SE 4.6 mph - N/A   Mostly Cloudy
11:55 AM 32.0 °F 25.6 °F 30.9 °F 96% 30.11 in 7.0 mi SSE 6.9 mph - N/A   Scattered Clouds
12:14 PM 32.2 °F 25.8 °F 29.3 °F 89% 30.11 in 7.0 mi SSE 6.9 mph - N/A   Mostly Cloudy
12:35 PM 32.4 °F 22.1 °F 29.5 °F 89% 30.10 in 7.0 mi South 15.0 mph - N/A   Overcast
12:55 PM 33.1 °F 23.4 °F 30.0 °F 89% 30.09 in 7.0 mi South 13.8 mph - N/A   Overcast
1:15 PM 33.3 °F 23.7 °F 30.0 °F 88% 30.08 in 7.0 mi South 13.8 mph 20.7 mph N/A   Overcast
1:35 PM 33.8 °F 25.3 °F 30.2 °F 87% 30.06 in 7.0 mi South 11.5 mph 16.1 mph N/A   Overcast
1:55 PM 34.0 °F 23.8 °F 30.0 °F 85% 30.05 in 10.0 mi South 16.1 mph - N/A   Overcast
2:15 PM 33.8 °F 24.8 °F 30.0 °F 86% 30.04 in 10.0 mi South 12.7 mph - N/A   Overcast
2:35 PM 33.8 °F 24.3 °F 29.7 °F 85% 30.04 in 10.0 mi South 13.8 mph 20.7 mph N/A   Overcast
2:55 PM 34.2 °F 27.5 °F 30.2 °F 85% 30.03 in 10.0 mi South 8.1 mph - N/A   Overcast
3:15 PM 34.7 °F 30.6 °F 30.2 °F 84% 30.00 in 10.0 mi SE 4.6 mph - N/A   Mostly Cloudy
3:35 PM 34.5 °F 26.2 °F 30.2 °F 84% 30.01 in 10.0 mi South 11.5 mph - N/A   Mostly Cloudy
3:55 PM 34.3 °F 27.0 °F 29.8 °F 84% 30.01 in 10.0 mi South 9.2 mph - N/A   Overcast
4:14 PM 34.7 °F 26.4 °F 30.2 °F 84% 30.00 in 10.0 mi South 11.5 mph - N/A   Overcast
4:35 PM 34.7 °F 26.9 °F 30.2 °F 84% 30.00 in 10.0 mi SSE 10.4 mph - N/A   Overcast
4:55 PM 34.7 °F 26.9 °F 30.9 °F 86% 29.99 in 10.0 mi SSE 10.4 mph - N/A   Overcast
5:15 PM 34.7 °F 28.1 °F 31.1 °F 87% 29.99 in 10.0 mi South 8.1 mph - N/A   Overcast
5:54 PM 34.2 °F 26.2 °F 31.3 °F 89% 29.98 in 10.0 mi South 10.4 mph - N/A   Overcast
6:15 PM 35.2 °F 28.1 °F 31.6 °F 87% 29.97 in 10.0 mi South 9.2 mph - N/A   Overcast
6:35 PM 35.6 °F 28.6 °F 31.6 °F 85% 29.97 in 7.0 mi South 9.2 mph - N/A Rain Light Rain
6:55 PM 34.9 °F 27.7 °F 32.0 °F 89% 29.97 in 7.0 mi SSW 9.2 mph - N/A Rain Light Rain
7:15 PM 35.4 °F 26.4 °F 32.2 °F 88% 29.96 in 10.0 mi SSW 13.8 mph - N/A Rain Light Rain
7:35 PM 34.7 °F 26.4 °F 32.9 °F 93% 29.96 in 4.0 mi SSW 11.5 mph - N/A Rain Light Rain
7:55 PM 33.8 °F 25.8 °F 32.9 °F 96% 29.96 in 4.0 mi South 10.4 mph - N/A Snow Light Snow
8:14 PM 33.3 °F 25.7 °F 32.9 °F 99% 29.95 in 4.0 mi South 9.2 mph - N/A Snow Light Snow
8:35 PM 33.3 °F 26.4 °F 32.9 °F 99% 29.94 in 5.0 mi South 8.1 mph - N/A   Overcast
8:54 PM 33.4 °F 25.9 °F 33.3 °F 99% 29.94 in 5.0 mi South 9.2 mph - N/A Rain Light Rain
9:15 PM 35.1 °F 25.9 °F 34.7 °F 99% 29.93 in 7.0 mi SSW 13.8 mph 23.0 mph N/A Rain Light Rain
9:35 PM 35.6 °F 27.1 °F 34.7 °F 97% 29.92 in 10.0 mi SSW 12.7 mph 23.0 mph N/A Rain Light Rain
9:55 PM 35.6 °F 25.9 °F 34.7 °F 97% 29.92 in 10.0 mi SSW 16.1 mph 20.7 mph N/A Rain Light Rain
10:15 PM 35.6 °F 26.6 °F 34.7 °F 97% 29.92 in 7.0 mi SSW 13.8 mph 24.2 mph N/A Rain Light Rain
10:35 PM 35.1 °F 26.9 °F 34.5 °F 98% 29.92 in 7.0 mi SSW 11.5 mph 20.7 mph N/A Rain Light Rain
10:55 PM 34.7 °F 25.5 °F 34.2 °F 98% 29.91 in 5.0 mi SSW 13.8 mph 21.9 mph N/A Rain Light Rain
11:14 PM 34.7 °F 25.9 °F 34.2 °F 98% 29.91 in 7.0 mi SSW 12.7 mph - N/A Rain Light Rain
11:35 PM 34.7 °F 26.4 °F 34.2 °F 98% 29.90 in 7.0 mi SSW 11.5 mph - N/A Rain Light Rain
11:55 PM 34.3 °F 25.9 °F 34.0 °F 99% 29.90 in 7.0 mi SSW 11.5 mph - N/A Rain Light Rain